Flag for Lebanon Weather past 2 weeks in Beirut, Lebanon

Now
72 °F

Passing clouds.


Feels Like: 75 °F
Forecast: 68 / 76 °F
Wind: 9 mph from Southwest

Location: Beirut Airport

Current Time: May 23, 2015 at 12:04:10 AM

Latest Report: May 22, 2015 at 11:00 PM


Visibility: N/A

Pressure: 29.95 "Hg

Humidity: 65%

Dew point: 59 °F

Location of BeirutLocation

Historic Weather in Beirut — Graph

°F

Beirut temperature yesterday

Maximum temperature yesterday: 77 °F (at 12:00 PM)
Minimum temperature yesterday: 68 °F (at 4:00 AM)
Average temperature yesterday: 72 °F

Past Weeks' High & Low Weather Summary

 TemperatureHumidityPressure
High104 °F (May 19, 1:00 PM)94% (May 20, 2:00 AM)30.21 "Hg (May 20, 2:00 AM)
Low64 °F (May 14, 9:00 AM)10% (May 19, 9:00 AM)29.71 "Hg (May 9, 6:00 PM)
Average74 °F63%29.93 "Hg
* Reported May 7 11:00 PM — May 22 11:00 PM, Beirut, Weather by CustomWeather, © 2015

Note: Actual official high and low records may vary slightly from our data, if they occured in-between our weather recording intervals... More about our weather records

Advertising

Beirut weather history for previous 24 hours

 ConditionsComfort  
Time TempWeatherWind HumidityBarometerVisibility
11:00 PM
Fri, May 22
72 °FPassing clouds.9 mph65%29.95 "HgN/A
10:00 PM72 °FPassing clouds.5 mph65%29.95 "HgN/A
9:00 PM72 °FPassing clouds.9 mph69%29.95 "HgN/A
8:00 PM72 °FScattered clouds.13 mph73%29.92 "HgN/A
7:00 PM73 °FScattered clouds.13 mph65%29.92 "HgN/A
6:00 PM73 °FScattered clouds.13 mph69%29.92 "HgN/A
5:00 PM75 °FScattered clouds.12 mph65%29.92 "HgN/A
4:00 PM75 °FScattered clouds.13 mph65%29.95 "HgN/A
3:00 PM77 °FScattered clouds.13 mph61%29.95 "HgN/A
2:00 PM77 °FScattered clouds.14 mph61%29.95 "HgN/A
1:00 PM77 °FScattered clouds.13 mph57%29.95 "HgN/A
12:00 PM77 °FScattered clouds.12 mph61%29.95 "HgN/A
11:00 AM75 °FScattered clouds.12 mph61%29.95 "HgN/A
10:00 AM75 °FScattered clouds.10 mph61%29.95 "HgN/A
9:00 AM72 °FScattered clouds.9 mph69%29.95 "HgN/A
8:00 AM73 °FScattered clouds.10 mph61%29.95 "HgN/A
7:00 AM70 °FPassing clouds.3 mph60%29.95 "HgN/A
6:00 AM68 °FPassing clouds.3 mph64%29.92 "HgN/A
5:00 AM68 °FPassing clouds.6 mph69%29.92 "Hg5 mi
4:00 AM68 °FPassing clouds.5 mph73%29.92 "Hg5 mi
3:00 AM70 °FPassing clouds.7 mph69%29.92 "HgN/A
2:00 AM70 °FPassing clouds.7 mph69%29.95 "HgN/A
1:00 AM70 °FPassing clouds.7 mph73%29.95 "HgN/A
12:00 AM70 °FPassing clouds.6 mph73%29.95 "HgN/A
Weather by CustomWeather, © 2015

See weather overviewHow to use our weather pages